Content
SEND FEEDBACK

Daily
Averages
Monthly
Summary
Madagascar

AMPITILOVA, MADAGASCAR


Home > Africa > Madagascar
Elevation: 59 feet     Latitude: 15 40S     Longitude: 046 21E

WEATHER
 
SELECT A DAY
Number of Records: 111,821;   Date Range: 9/17/97 - 10/20/14
 
SHARE

PRINT THIS DATA

[ ← Previous Day ]
WEATHER ALMANAC - FEBRUARY 13, 2013
[ Next Day → ]
[ °C ]   °F
Weather ElementAverageHighLow
Temperature82 °F87.8 °F (11:00 am)75.2 °F (6:00 am)
Dewpoint75.5 °F80.6 °F (3:00 pm)41 °F (3:00 pm)
Humidity82.5 %94 % (1:00 am)12 % (3:00 pm)
Barometer29.76 in29.80 in (1:00 am)29.71 in (4:00 pm)
Wind Speed6.2 mph11.5 mph (2:00 pm)
Weather ElementAverage
Visibility7.4 mi
Wind DirectionSSW (203.7 °)

Weather ElementTotal
Precipitation---
Cooling Degree Days16.5 (Base 65)
Growing Degree Days31.5 (Base 50)
Averaged from 27 records on February 13, 2013
WEATHER CONDITIONS BREAKOUT
WIND DIRECTION BREAKOUT
WEATHER BY HOUR - FEBRUARY 13, 2013
[ °C ]   °F
Local TimeTemperatureDewpointHumidityBarometerVisibilityWind DirectionWind SpeedGust SpeedPrecipitationEventsConditions
1:00 AM78.8 °F77.0 °F94 %29.80 in6.2 miSSE (160°)2.3 mphRain-ThunderstormLight Thunderstorms and Rain
2:00 AM78.8 °F77.0 °F94 %29.80 in6.2 miSSE (160°)2.3 mphRain-ThunderstormLight Thunderstorms and Rain
3:00 AM76.0 °F74.0 °F94 %29.77 in6.0 miENE (60°)9.2 mphRain-ThunderstormThunderstorms and Rain
3:00 AM77.0 °F75.2 °F94 %29.77 in6.2 miENE (60°)9.2 mphRain-ThunderstormLight Thunderstorms and Rain
4:00 AM77.0 °F75.2 °F94 %29.77 in6.2 miENE (60°)9.2 mphRain-ThunderstormLight Thunderstorms and Rain
5:00 AM77.0 °F75.2 °F94 %29.77 in5.0 miEast (80°)6.9 mphMostly Cloudy
6:00 AM75.2 °F73.4 °F94 %29.74 in6.2 miENE (60°)4.6 mphMostly Cloudy
7:00 AM77.0 °F71.6 °F83 %29.77 in6.2 miEast (80°)4.6 mphScattered Clouds
8:00 AM80.6 °F71.6 °F74 %29.77 in6.2 miENE (60°)4.6 mphScattered Clouds
9:00 AM82.0 °F75.0 °F75 %29.79 in25.0 miENE (60°)4.6 mphScattered Clouds
9:00 AM82.4 °F75.2 °F79 %29.77 in6.2 miENE (60°)4.6 mphScattered Clouds
10:00 AM86.0 °F75.2 °F70 %29.77 in6.2 miNE (40°)4.6 mphScattered Clouds
11:00 AM87.8 °F78.8 °F75 %29.80 in6.2 miNorth (360°)6.9 mphScattered Clouds
12:00 PM87.8 °F78.8 °F75 %29.77 in6.2 miNNW (340°)9.2 mphScattered Clouds
1:00 PM87.8 °F78.8 °F75 %29.74 in6.2 miNW (320°)9.2 mphScattered Clouds
2:00 PM87.8 °F78.8 °F75 %29.74 in6.2 miWNW (300°)11.5 mphScattered Clouds
3:00 PM86.0 °F41.0 °F12 %29.74 in9.0 miNW (320°)11.5 mphPartly Cloudy
3:00 PM86.0 °F80.6 °F84 %29.74 in6.2 miNW (320°)11.5 mphMostly Cloudy
4:00 PM86.0 °F78.8 °F79 %29.71 in6.2 miNW (320°)9.2 mphMostly Cloudy
5:00 PM86.0 °F78.8 °F79 %29.71 in6.2 miNW (320°)9.2 mphMostly Cloudy
6:00 PM84.2 °F78.8 °F84 %29.71 in6.2 miWest (280°)4.6 mphMostly Cloudy
7:00 PM82.4 °F78.8 °F89 %29.71 in6.2 miWest (280°)6.9 mphScattered Clouds
8:00 PM82.4 °F78.8 °F89 %29.77 in6.2 miWest (280°)2.3 mphScattered Clouds
9:00 PM81.0 °F78.0 °F90 %29.79 in19.0 miWest (280°)2.3 mphPartly Cloudy
9:00 PM80.6 °F78.8 °F94 %29.77 in6.2 miWest (280°)2.3 mphScattered Clouds
10:00 PM80.6 °F78.8 °F94 %29.80 in6.2 miWest (280°)2.3 mphScattered Clouds
11:00 PM78.8 °F77.0 °F94 %29.80 in6.2 miWest (280°)2.3 mphScattered Clouds
Hourly data recorded from FMNM, located miles away from Ampitilova, Madagascar







STORIES FROM OUR PARTNERS